FW6981 Weather Reports


time (UTC)temp
C
wind
direction
speed
KPH
gust
KPH
rain 1hr
cm
rain 24hr
cm
rain mn
cm
humidity
%
barometer
mb
20260505193036 22 203 8.0 22.5 0.00 0.00 0.00 42 1017.0
20260505191537 22 128 3.2 27.4 0.00 0.00 0.00 42 1017.2
20260505190040 22 223 6.4 16.1 0.00 0.00 0.00 42 1017.4
20260505184535 23 154 9.7 25.7 0.00 0.00 0.00 40 1017.6
20260505183042 22 106 8.0 27.4 0.00 0.00 0.00 44 1017.7
20260505181541 22 186 4.8 12.9 0.00 0.00 0.00 41 1017.7
20260505180053 22 126 9.7 22.5 0.00 0.00 0.00 41 1017.9
20260505174544 22 84 4.8 19.3 0.00 0.00 0.00 42 1017.9
20260505173035 22 113 3.2 24.1 0.00 0.00 0.00 45 1018.2
20260505171537 22 288 6.4 24.1 0.00 0.00 0.00 45 1018.4
20260505170038 22 192 4.8 24.1 0.00 0.00 0.00 43 1018.3
20260505164542 21 152 9.7 29.0 0.00 0.00 0.00 39 1018.1
20260505163038 22 248 4.8 29.0 0.00 0.00 0.00 43 1018.0
20260505161537 21 181 6.4 17.7 0.00 0.00 0.00 44 1018.3
20260505153040 20 136 6.4 12.9 0.00 0.00 0.00 56 1018.6
20260505151540 20 119 6.4 12.9 0.00 0.00 0.00 52 1018.7
20260505124542 10 0 0.0 0.0 0.00 0.00 0.00 90 1017.5
20260505123041 9 0 0.0 1.6 0.00 0.00 0.00 91 1017.6
20260505121540 8 0 0.0 1.6 0.00 0.00 0.00 92 1017.5
20260505120038 7 0 0.0 1.6 0.00 0.00 0.00 92 1017.2
20260505114540 6 0 0.0 1.6 0.00 0.00 0.00 92 1017.3
20260505113048 6 0 0.0 0.0 0.00 0.00 0.00 92 1017.2
20260505111543 6 0 0.0 0.0 0.00 0.00 0.00 91 1016.7
20260505101556 5 0 0.0 0.0 0.00 0.00 0.00 91 1016.7
20260505100055 6 0 0.0 1.6 0.00 0.00 0.00 91 1016.7
20260505094544 6 0 0.0 0.0 0.00 0.00 0.00 90 1016.7
20260505093044 6 0 0.0 1.6 0.00 0.00 0.00 90 1016.6
20260505091539 6 0 0.0 1.6 0.00 0.00 0.00 90 1016.6
20260505090037 6 360 0.0 3.2 0.00 0.00 0.00 90 1016.7
20260505084535 6 0 0.0 1.6 0.00 0.00 0.00 90 1016.5
20260505083037 7 0 0.0 1.6 0.00 0.00 0.00 90 1016.5
20260505081556 7 360 0.0 1.6 0.00 0.00 0.00 90 1016.6
20260505080049 7 360 0.0 3.2 0.00 0.00 0.00 90 1016.4
20260505074539 7 0 0.0 0.0 0.00 0.00 0.00 90 1016.4
20260505073040 7 0 0.0 0.0 0.00 0.00 0.00 90 1016.5
20260505071548 7 0 0.0 0.0 0.00 0.00 0.00 90 1016.5
20260505070035 7 0 0.0 0.0 0.00 0.00 0.00 89 1016.5
20260505064539 7 0 0.0 0.0 0.00 0.00 0.00 89 1016.5
20260505063047 8 0 0.0 0.0 0.00 0.00 0.00 89 1016.7
20260505061541 8 0 0.0 0.0 0.00 0.00 0.00 89 1016.9
20260505060038 8 0 0.0 1.6 0.00 0.00 0.00 89 1016.9
20260505054544 8 0 0.0 3.2 0.00 0.00 0.00 89 1016.7
20260505053043 8 0 0.0 3.2 0.00 0.00 0.00 89 1016.9
20260505051543 8 0 0.0 3.2 0.00 0.00 0.00 89 1016.9
20260505041537 9 0 0.0 1.6 0.00 0.00 0.00 87 1016.8
20260505040043 10 0 0.0 1.6 0.00 0.00 0.00 87 1017.1
20260505034542 10 0 0.0 0.0 0.00 0.00 0.00 87 1017.0
20260505033038 10 0 0.0 0.0 0.00 0.00 0.00 86 1017.2
20260505031538 10 0 0.0 0.0 0.00 0.00 0.00 85 1017.3
20260505030044 10 0 0.0 0.0 0.00 0.00 0.00 84 1017.2
20260505024539 11 0 0.0 0.0 0.00 0.00 0.00 83 1017.2
20260505023037 11 0 0.0 0.0 0.00 0.00 0.00 82 1017.3
20260505021541 11 0 0.0 0.0 0.00 0.00 0.00 81 1016.9
20260505020039 12 0 0.0 0.0 0.00 0.00 0.00 80 1016.8
20260505014551 12 0 0.0 0.0 0.00 0.00 0.00 78 1016.8
20260505013040 13 0 0.0 0.0 0.00 0.00 0.00 76 1016.8
20260505011541 13 0 0.0 0.0 0.00 0.00 0.00 76 1016.8
20260505004536 15 0 0.0 0.0 0.00 0.00 0.00 72 1016.3
20260505003045 15 0 0.0 0.0 0.00 0.00 0.00 69 1016.4
20260505001540 16 0 0.0 0.0 0.00 0.00 0.00 66 1016.3
20260505000047 17 0 0.0 0.0 0.00 0.00 0.00 64 1016.3
20260504234536 18 0 0.0 1.6 0.00 0.00 0.00 58 1016.2
20260504233035 20 0 0.0 4.8 0.00 0.00 0.00 53 1016.2
20260504231540 20 0 1.6 8.0 0.00 0.00 0.00 48 1016.2
20260504230045 21 229 1.6 9.7 0.00 0.00 0.00 46 1016.1
20260504224543 21 183 1.6 9.7 0.00 0.00 0.00 47 1016.0
20260504223036 21 146 1.6 8.0 0.00 0.00 0.00 46 1016.0
20260504221548 21 130 3.2 9.7 0.00 0.00 0.00 46 1016.2
20260504220040 21 157 4.8 17.7 0.00 0.00 0.00 45 1016.3
20260504214543 22 0 3.2 19.3 0.00 0.00 0.00 45 1016.3
20260504213052 22 184 1.6 12.9 0.00 0.00 0.00 46 1016.3
20260504211540 22 227 4.8 20.9 0.00 0.00 0.00 44 1016.3
20260504210038 22 112 6.4 16.1 0.00 0.00 0.00 43 1016.3
20260504204534 22 126 4.8 17.7 0.00 0.00 0.00 43 1016.3
20260504203048 22 161 1.6 14.5 0.00 0.00 0.00 43 1016.6
20260504201535 22 81 4.8 12.9 0.00 0.00 0.00 41 1016.5
20260504200035 23 130 3.2 17.7 0.00 0.00 0.00 42 1016.5
20260504194541 23 211 3.2 12.9 0.00 0.00 0.00 39 1016.6